Tracking 19644 objects as of 26-Apr-2019
HD Live streaming from Space Station
objects crossing your sky now

LEMUR 1

Track LEMUR 1 now!
10-day predictions
LEMUR 1 is classified as:


NORAD ID: 40044
Int'l Code: 2014-033AL
Perigee: 614.7 km
Apogee: 695.7 km
Inclination: 97.8 °
Period: 97.7 minutes
Semi major axis: 7026 km
RCS: Unknown
Launch date: June 19, 2014
Source: United States (US)
Launch site: Orenburg, Russia (OREN)
aabbcc
Your satellite tracking list
Your tracking list is empty




NASA's NSSDC Master Catalog

Two Line Element Set (TLE):
1 40044U 14033AL  19115.59078438 +.00000110 +00000-0 +23903-4 0  9997
2 40044 097.7650 345.2451 0057665 273.3596 086.1018 14.74080817260200
Source of the keplerian elements: AFSPC